This is the latest recevied weather packets stored in our database for station/object IW2NTF-3. If no packets are shown the sender has not sent any weather packets the latest 10 day(s).
| Time | Temp. | Humidity | Pressure | Rain* | Wind** | Luminosity | Snow |
|---|---|---|---|---|---|---|---|
| 1787900343 | 23.89° C | 81% | 1015.7 hPa | 0 mm | - | 58 W/m² | - |
| 1787900283 | 23.89° C | 81% | 1016 hPa | 0 mm | - | 56 W/m² | - |
| 1787900223 | 23.89° C | 81% | 1015.9 hPa | 0 mm | - | 53 W/m² | - |
| 1787900163 | 23.89° C | 81% | 1015.9 hPa | 0 mm | - | 51 W/m² | - |
| 1787900103 | 23.89° C | 81% | 1015.8 hPa | 0 mm | - | 49 W/m² | - |
| 1787900043 | 23.89° C | 81% | 1015.8 hPa | 0 mm | - | 47 W/m² | - |
| 1787899983 | 23.89° C | 81% | 1016 hPa | 0 mm | - | 44 W/m² | - |
| 1787899923 | 23.89° C | 81% | 1016.1 hPa | 0 mm | - | 42 W/m² | - |
| 1787899863 | 23.89° C | 80% | 1016.1 hPa | 0 mm | - | 37 W/m² | - |
| 1787899803 | 23.89° C | 81% | 1016.2 hPa | 0 mm | - | 35 W/m² | - |
| 1787899743 | 23.89° C | 81% | 1016.2 hPa | 0 mm | - | 33 W/m² | - |
| 1787899683 | 23.89° C | 80% | 1016.4 hPa | 0 mm | - | 33 W/m² | - |
| 1787899623 | 23.89° C | 80% | 1016.6 hPa | 0 mm | - | 35 W/m² | - |
| 1787899563 | 23.89° C | 80% | 1016.6 hPa | 0 mm | - | 37 W/m² | - |
| 1787899503 | 23.89° C | 80% | 1016.6 hPa | 0 mm | - | 40 W/m² | - |
| 1787899443 | 24.44° C | 80% | 1016.6 hPa | 0 mm | - | 42 W/m² | - |
| 1787899383 | 24.44° C | 80% | 1016.8 hPa | 0 mm | - | 42 W/m² | - |
| 1787899323 | 24.44° C | 79% | 1016.9 hPa | 0 mm | - | 44 W/m² | - |
| 1787899263 | 24.44° C | 79% | 1016.9 hPa | 0 mm | - | 46 W/m² | - |
| 1787899203 | 24.44° C | 80% | 1017 hPa | 0 mm | - | 46 W/m² | - |
| 1787899143 | 24.44° C | 79% | 1016.8 hPa | 0 mm | - | 44 W/m² | - |
| 1787899083 | 24.44° C | 79% | 1016.8 hPa | 0 mm | - | 40 W/m² | - |
| 1787899023 | 24.44° C | 79% | 1016.8 hPa | 0 mm | - | 39 W/m² | - |
| 1787898963 | 24.44° C | 79% | 1016.8 hPa | 0 mm | - | 39 W/m² | - |
| 1787898903 | 24.44° C | 79% | 1017.1 hPa | 0 mm | - | 39 W/m² | - |
* Rain latest hour (hover to see other rain measurements)
** Current wind speed in m/s (hover to see current wind gust speed)